Temp
60 61 61 63 63 63 63 63 62 62 61 61 60 60 60 61 61 61 61 62 60 59 58 56 55 56 54 53 51 52 52 52 49 54 45 44 42 42 42 42 42 42 44
53 58 57 57 60 61 62 62 63 63 63 62 61 60 60 59 60 60 60 60 59 58 58 56 55 56 54 53 53 50 51 52 50 48 47 37 41 42 42 39 39 41 39
48 48 49 49 51 51 51 51 54 58 61 61 60 60 59 59 59 60 60 59 59 59 58 58 57 55 54 54 53 52 51 51 51 49 50 39 40 38 38 37 35 35 36
44 44 43 44 46 47 48 49 48 50 50 50 50 53 54 57 57 56 58 58 59 59 59 59 58 56 54 54 53 52 52 50 49 48 47 36 36 34 36 33 31 32 32
40 39 39 41 43 44 44 45 45 45 46 47 47 47 48 48 44 43 45 46 49 54 57 57 57 54 48 53 54 53 51 49 48 46 45 35 34 31 32 34 33 32 32
37 36 37 38 39 39 40 41 42 42 43 43 42 43 43 45 40 40 40 43 44 44 44 45 46 41 44 42 43 45 50 50 48 47 46 42 37 36 35 33 34 30 28
35 35 35 36 35 36 37 38 37 38 39 39 39 40 40 41 40 40 38 40 40 41 40 39 38 38 38 40 41 41 41 42 43 44 44 42 37 37 36 32 33 34 34
32 33 33 33 33 34 34 35 35 36 36 36 36 37 37 38 39 39 38 38 37 37 37 37 36 37 37 36 37 38 38 38 39 41 43 44 42 39 38 37 35 31 29
30 31 31 32 32 33 33 33 34 34 34 34 34 34 34 35 38 39 39 36 35 35 35 36 36 35 37 38 36 35 35 36 37 40 42 43 42 41 39 35 29 31 24
29 30 31 32 32 33 33 33 34 34 33 33 32 33 33 33 36 37 37 35 34 34 36 35 35 37 38 39 35 34 34 35 32 33 34 38 39 38 39 38 34 33 28
28 30 30 31 32 34 34 34 34 33 32 31 31 31 32 33 33 37 38 35 34 34 34 34 35 37 38 39 39 35 34 33 34 32 32 33 34 35 36 36 36 36 31
26 28 28 28 30 32 33 32 32 31 30 30 30 29 31 32 34 35 36 38 38 34 33 34 34 37 38 38 37 38 38 35 31 30 30 30 30 30 31 31 31 31 30
23 24 26 27 29 30 31 31 30 30 29 28 27 27 27 30 31 34 35 37 37 35 34 35 36 36 36 35 37 38 33 31 30 29 28 27 28 28 27 26 26 26 26
21 22 25 29 29 29 30 31 29 27 27 27 25 25 26 27 28 30 32 33 33 35 35 33 35 35 35 34 32 32 32 31 30 28 27 26 27 27 26 27 25 25 23
17 21 25 28 29 27 27 30 30 29 29 26 25 26 24 24 27 31 32 30 31 34 34 32 30 27 27 28 30 30 30 30 29 28 27 26 26 25 25 26 25 23 21
17 24 26 27 28 28 27 21 30 32 31 31 30 29 27 30 30 30 31 30 30 31 24 24 26 29 28 26 24 24 27 27 28 28 27 27 25 24 24 25 24 22 20
20 25 27 26 26 25 25 24 20 20 28 28 29 27 29 29 28 28 28 27 26 22 16 16 17 19 23 25 25 23 23 25 28 28 27 26 25 24 24 23 22 21 19
9 22 26 26 25 24 24 20 12 13 12 13 19 25 24 27 26 25 24 20 13 14 11 12 13 15 18 20 23 25 25 26 26 26 25 25 25 25 24 23 22 20 18
11 10 25 21 23 24 24 19 7 5 3 1 4 18 15 20 22 21 19 9 7 8 9 10 11 12 15 17 19 22 23 24 24 25 25 25 25 25 23 22 20 19 19
24 17 22 17 5 21 20 16 8 4 -1 -1 3 7 7 7 6 6 6 6 6 6 8 9 10 11 12 16 16 17 19 20 21 21 21 22 23 22 20 20 19 18 16
24 23 18 20 3 1 5 17 13 -0 -3 -4 -3 9 20 -4 -3 -3 0 4 5 5 6 8 9 10 11 13 15 15 17 17 18 18 19 19 20 18 18 18 17 16 14
22 16 4 11 10 2 -0 -2 -0 -0 -4 -4 -4 -3 16 -4 -3 -2 -0 1 2 3 4 4 8 10 10 11 12 15 15 15 16 17 17 17 17 17 17 16 15 14 13
2 2 1 -0 -1 1 -2 -5 -4 -5 -5 -6 -7 -5 -7 -8 -6 -4 -4 -3 -2 1 3 2 5 9 11 12 13 13 13 13 15 17 16 15 15 14 14 13 13 12 11
-0 0 1 -1 -1 -2 -3 -3 -5 -3 -6 -6 -7 -7 -6 -7 -8 -7 -6 -6 -3 -2 0 1 1 5 7 9 11 13 14 14 14 15 15 14 13 13 13 12 11 11 10
-0 -1 -1 0 -2 -1 -3 -4 -4 -6 -6 -5 -5 -6 -7 -7 -7 -8 -7 -7 -7 -6 -2 -1 -1 -0 4 7 8 9 11 11 12 14 14 14 12 11 11 10 9 8 7
-2 -2 -1 -4 -4 -4 -3 -2 -3 -5 -4 -5 -6 -7 -7 -7 -8 -9 -9 -8 -7 -6 -5 -4 -3 -0 2 4 7 12 15 14 11 11 11 11 10 9 9 7 7 6 5
MSLP
1012.01 1011.90 1012.22 1012.61 1013.02 1013.39 1013.65 1013.84 1014.07 1014.51 1014.51 1014.72 1015.15 1015.56 1015.26 1015.80 1016.21 1016.34 1016.56 1016.73 1016.81 1016.96 1017.26 1017.64 1017.91 1018.26 1018.75 1019.16 1019.51 1019.43 1019.36 1019.37 1018.97 1018.68 1019.02 1019.61 1020.28 1020.46 1020.96 1021.70 1021.93 1022.78 1023.87
1012.69 1011.92 1012.50 1012.92 1013.03 1013.16 1013.35 1013.50 1013.62 1013.79 1013.95 1014.11 1014.56 1014.77 1015.07 1015.27 1015.09 1015.54 1015.51 1015.62 1015.58 1015.60 1015.76 1016.17 1016.40 1016.84 1017.14 1017.45 1017.87 1018.12 1017.96 1017.81 1018.05 1017.76 1018.33 1019.06 1019.07 1019.10 1019.18 1020.01 1020.85 1022.06 1022.78
1013.85 1013.70 1013.60 1014.10 1014.22 1014.37 1014.10 1014.05 1013.96 1013.71 1013.62 1013.83 1014.08 1014.25 1014.36 1014.38 1014.40 1014.48 1014.47 1014.40 1014.15 1014.41 1014.46 1014.63 1014.76 1015.11 1015.31 1015.45 1015.88 1015.99 1016.04 1015.95 1016.02 1016.16 1016.25 1017.27 1017.74 1018.32 1019.12 1020.26 1021.10 1021.75 1023.01
1015.32 1015.06 1015.27 1015.71 1015.77 1015.63 1015.28 1014.78 1014.55 1014.87 1014.70 1014.59 1014.58 1014.46 1014.13 1013.84 1013.87 1014.12 1014.10 1013.70 1013.56 1013.50 1013.28 1013.26 1013.39 1013.54 1013.76 1013.63 1014.16 1014.14 1014.12 1014.54 1014.59 1014.77 1014.89 1016.08 1016.65 1017.39 1018.30 1019.32 1020.44 1020.86 1021.82
1017.04 1016.61 1017.09 1017.31 1017.18 1016.97 1015.84 1016.11 1016.06 1015.77 1015.99 1016.30 1015.81 1015.35 1014.58 1015.26 1015.74 1015.80 1015.37 1015.02 1014.20 1013.61 1013.10 1012.77 1012.52 1012.39 1012.19 1012.35 1012.63 1012.61 1012.89 1013.07 1013.27 1013.61 1013.98 1014.96 1015.74 1016.99 1017.07 1017.73 1019.03 1020.00 1021.40
1018.63 1018.36 1018.71 1018.23 1018.33 1018.33 1017.53 1017.42 1016.82 1016.87 1016.68 1016.11 1017.22 1015.37 1016.49 1016.29 1016.18 1016.27 1015.95 1015.51 1014.72 1014.23 1014.08 1013.97 1013.73 1013.26 1013.07 1012.93 1012.70 1012.38 1012.16 1012.19 1012.15 1012.46 1012.59 1013.11 1014.20 1014.60 1015.92 1016.67 1017.57 1019.57 1020.96
1019.75 1019.69 1019.72 1019.48 1019.44 1019.14 1018.37 1018.68 1017.78 1017.84 1017.67 1017.58 1017.67 1017.48 1017.07 1016.93 1016.89 1016.46 1015.82 1015.95 1015.02 1015.10 1014.50 1014.29 1012.94 1013.42 1013.09 1013.20 1012.75 1012.46 1012.15 1011.89 1011.78 1011.94 1011.84 1012.04 1012.97 1013.70 1014.54 1015.71 1016.42 1017.03 1017.55
1021.54 1020.97 1020.46 1020.79 1020.39 1020.58 1019.93 1019.51 1018.95 1018.63 1018.33 1018.03 1018.14 1017.87 1017.82 1017.68 1016.97 1016.68 1016.17 1015.88 1015.73 1015.14 1014.91 1014.28 1013.92 1013.67 1013.37 1012.95 1012.86 1012.28 1011.91 1011.68 1011.26 1011.20 1010.71 1010.81 1011.21 1012.27 1012.93 1013.23 1014.66 1017.09 1018.30
1022.18 1022.10 1021.78 1021.90 1021.20 1021.56 1020.51 1020.39 1020.10 1019.69 1019.41 1019.20 1019.03 1018.79 1018.67 1017.93 1017.43 1017.04 1016.72 1016.31 1015.82 1015.26 1014.69 1014.48 1014.12 1013.59 1013.31 1013.07 1012.59 1012.07 1011.45 1011.03 1010.97 1010.91 1010.59 1010.52 1010.60 1011.15 1012.24 1013.92 1015.43 1016.62 1018.27
1023.69 1023.13 1022.93 1022.60 1022.41 1022.18 1021.49 1020.84 1020.80 1020.60 1020.45 1020.19 1019.82 1019.24 1018.98 1018.52 1018.16 1017.92 1017.48 1016.51 1015.87 1015.05 1014.62 1014.14 1013.95 1013.67 1013.11 1012.93 1012.51 1012.30 1011.73 1010.97 1011.05 1010.81 1010.33 1010.25 1010.60 1011.24 1011.83 1012.32 1013.60 1014.93 1016.94
1024.36 1023.88 1023.30 1022.89 1022.72 1022.50 1022.16 1021.75 1021.57 1021.37 1021.09 1020.57 1020.17 1020.03 1019.71 1019.23 1018.83 1018.22 1017.46 1016.81 1016.11 1015.42 1014.81 1014.12 1013.93 1013.50 1012.94 1012.37 1012.39 1012.06 1011.76 1011.36 1011.30 1011.08 1010.70 1010.62 1010.79 1011.33 1011.92 1012.41 1013.11 1013.61 1015.12
1025.16 1024.59 1024.19 1023.85 1023.50 1023.29 1023.04 1022.83 1022.58 1022.22 1022.05 1021.52 1021.10 1020.63 1020.34 1020.07 1019.49 1018.60 1017.67 1016.86 1016.27 1015.66 1014.93 1014.45 1014.00 1013.32 1012.71 1012.27 1011.86 1011.51 1011.59 1011.67 1011.60 1011.56 1011.48 1011.49 1011.59 1011.98 1012.44 1012.86 1013.28 1014.37 1015.04
1026.01 1025.51 1025.06 1024.74 1024.45 1024.17 1023.78 1023.53 1023.24 1022.90 1022.52 1022.13 1021.79 1021.52 1021.07 1020.44 1019.56 1018.83 1017.93 1017.26 1016.59 1015.92 1015.47 1014.80 1014.16 1013.47 1012.93 1012.41 1012.02 1011.54 1011.60 1011.85 1011.86 1012.12 1012.29 1012.29 1012.30 1012.57 1013.05 1013.73 1014.51 1014.98 1015.87
1026.87 1026.40 1025.92 1025.34 1025.05 1024.79 1024.45 1024.08 1023.80 1023.63 1023.43 1023.00 1022.74 1022.42 1021.85 1020.93 1020.07 1019.32 1018.59 1017.89 1016.96 1016.07 1015.55 1015.08 1014.49 1013.86 1013.30 1013.01 1012.59 1012.25 1012.26 1012.42 1012.59 1012.76 1012.99 1013.21 1013.39 1013.54 1013.88 1014.17 1014.93 1015.85 1016.63
1027.56 1026.92 1026.44 1026.00 1025.63 1025.41 1025.15 1024.71 1024.41 1024.45 1024.25 1023.85 1023.54 1022.96 1022.39 1021.73 1021.18 1020.36 1019.35 1018.61 1017.86 1016.84 1015.95 1015.33 1014.86 1014.48 1014.18 1013.79 1013.43 1013.11 1013.04 1013.14 1013.24 1013.33 1013.56 1013.87 1014.20 1014.37 1014.84 1015.23 1015.69 1016.38 1017.43
1027.83 1027.31 1026.86 1026.51 1026.22 1025.96 1025.83 1025.66 1025.22 1024.68 1024.57 1024.09 1023.93 1023.56 1023.23 1022.72 1022.01 1021.03 1020.23 1019.65 1018.80 1017.92 1017.34 1017.19 1016.71 1015.84 1015.33 1014.99 1014.58 1014.20 1013.96 1013.95 1013.93 1013.94 1014.03 1014.40 1014.74 1015.25 1015.66 1016.15 1016.70 1017.28 1018.32
1028.20 1027.45 1026.95 1026.78 1026.62 1026.46 1026.29 1026.19 1026.03 1025.47 1024.96 1024.92 1024.48 1024.33 1023.59 1023.11 1022.64 1021.90 1021.27 1020.68 1020.20 1019.36 1019.43 1019.10 1018.74 1018.07 1017.06 1016.08 1015.47 1015.15 1014.92 1014.64 1014.37 1014.49 1014.67 1014.82 1015.46 1015.73 1016.32 1017.01 1017.73 1018.41 1019.49
1028.48 1027.93 1027.34 1027.09 1026.88 1026.79 1026.77 1026.85 1026.96 1026.72 1026.44 1026.01 1025.24 1024.60 1024.40 1023.73 1023.26 1022.66 1022.02 1021.24 1021.20 1021.15 1021.50 1020.80 1020.19 1019.49 1018.48 1017.52 1016.72 1016.16 1015.81 1015.48 1015.25 1015.21 1015.39 1015.68 1016.11 1016.36 1016.98 1017.67 1018.58 1019.31 1020.28
1028.58 1028.33 1027.69 1027.55 1027.39 1027.29 1027.23 1027.40 1027.93 1027.85 1027.83 1027.69 1026.68 1025.75 1025.66 1024.77 1024.16 1023.77 1023.61 1023.21 1023.18 1023.04 1022.60 1022.37 1021.69 1020.68 1019.92 1018.92 1017.95 1017.39 1017.10 1016.78 1016.45 1016.27 1016.39 1016.62 1016.81 1017.27 1017.63 1018.48 1019.20 1020.01 1021.01
1028.22 1028.13 1027.87 1027.73 1027.92 1027.63 1027.72 1028.27 1028.54 1028.66 1028.67 1028.41 1027.90 1027.37 1026.90 1026.01 1025.41 1025.19 1024.93 1024.86 1024.56 1024.08 1023.60 1022.86 1022.44 1021.81 1021.16 1020.04 1019.35 1018.60 1018.28 1018.12 1017.96 1017.82 1017.69 1017.75 1018.02 1018.28 1018.86 1019.40 1020.38 1020.94 1021.77
1027.95 1027.81 1027.93 1027.91 1028.50 1028.63 1028.60 1028.90 1029.13 1029.38 1029.42 1029.32 1028.95 1028.15 1027.67 1027.80 1027.75 1027.23 1026.73 1026.14 1025.63 1025.31 1024.50 1023.97 1023.30 1022.46 1021.83 1021.47 1020.46 1019.98 1019.39 1019.09 1019.11 1019.27 1019.26 1019.21 1019.31 1019.77 1020.32 1020.55 1021.29 1022.03 1023.11
1028.10 1028.16 1028.42 1028.56 1028.54 1028.98 1029.13 1029.08 1029.39 1029.84 1029.99 1029.94 1029.65 1028.96 1028.68 1028.42 1028.44 1028.11 1027.48 1026.80 1026.31 1025.91 1025.13 1024.55 1023.55 1023.04 1022.95 1022.18 1021.60 1021.18 1020.96 1020.32 1019.80 1020.08 1020.43 1020.67 1020.92 1021.23 1021.62 1022.02 1022.45 1023.05 1023.64
1028.50 1028.83 1029.09 1029.33 1029.38 1029.36 1029.58 1029.64 1029.85 1030.04 1030.09 1029.78 1029.61 1029.39 1029.20 1029.06 1028.94 1028.79 1028.19 1027.59 1026.79 1026.26 1025.86 1024.78 1024.13 1023.59 1023.60 1023.15 1022.60 1022.27 1021.67 1021.83 1021.64 1020.88 1021.13 1021.81 1022.29 1022.71 1022.96 1023.29 1023.67 1024.11 1024.70
1028.53 1028.72 1029.10 1029.39 1029.61 1029.93 1030.22 1030.31 1029.94 1029.85 1029.93 1029.84 1029.73 1029.53 1029.44 1029.35 1029.19 1029.20 1028.83 1028.11 1027.23 1026.87 1026.40 1025.46 1024.79 1024.20 1024.00 1023.84 1023.51 1023.02 1022.83 1022.81 1022.55 1022.48 1022.44 1022.56 1023.01 1023.48 1023.93 1024.50 1024.92 1025.35 1025.76
1028.15 1028.47 1028.96 1029.42 1029.83 1029.99 1030.28 1030.20 1030.03 1029.87 1029.82 1029.65 1029.36 1029.03 1029.09 1029.23 1029.21 1029.29 1029.10 1028.41 1028.08 1027.65 1027.10 1026.64 1025.62 1024.98 1024.61 1024.20 1023.95 1023.52 1023.44 1023.47 1023.42 1023.20 1023.34 1023.67 1024.07 1024.46 1024.89 1025.39 1025.86 1026.38 1026.69
1027.91 1028.14 1028.38 1028.73 1029.09 1029.18 1029.47 1029.71 1029.70 1029.55 1029.57 1029.24 1029.20 1029.01 1028.87 1028.96 1029.13 1029.35 1029.08 1028.71 1028.42 1028.04 1027.85 1027.37 1026.68 1025.47 1024.84 1024.85 1024.60 1024.09 1023.91 1023.89 1023.99 1024.07 1024.27 1024.51 1024.96 1025.45 1025.74 1026.10 1026.42 1026.87 1027.32
Wind_Speed
9 12 12 11 12 11 11 12 13 11 12 13 12 13 14 15 16 16 17 18 18 17 16 16 18 16 11 11 10 11 12 12 15 12 5 8 11 13 13 15 13 15 13
9 3 3 4 5 10 10 11 11 13 11 12 12 13 14 14 16 16 17 17 19 18 18 17 18 13 16 15 12 15 15 15 13 19 9 6 12 16 14 17 13 10 10
11 11 11 11 8 9 8 11 9 5 10 10 12 14 14 15 15 16 18 18 18 18 17 19 19 18 18 15 16 15 14 13 15 14 15 6 9 6 8 7 8 8 7
13 15 15 13 10 9 8 10 11 9 10 9 10 9 6 7 7 9 11 16 18 17 18 19 19 18 20 19 17 18 16 14 14 14 13 5 4 4 9 11 9 7 10
14 15 14 12 11 10 12 10 9 11 10 9 9 9 11 11 9 10 9 9 10 12 14 15 16 18 21 21 14 16 16 14 12 12 11 4 6 6 15 9 9 9 8
13 15 12 13 11 10 10 9 10 10 11 10 10 11 8 7 13 13 9 7 7 6 7 9 10 11 11 12 14 18 14 15 16 12 13 10 12 10 10 10 10 12 8
14 13 12 11 11 11 12 10 10 10 8 9 9 9 8 8 14 15 16 5 5 6 6 6 6 5 6 9 11 10 11 13 11 7 10 9 8 11 13 13 11 15 11
11 12 13 12 11 8 9 10 11 10 11 10 9 10 9 8 20 19 17 8 7 6 7 7 5 8 6 6 8 9 9 9 8 8 11 11 12 14 17 16 14 8 7
14 12 12 10 11 10 12 11 9 10 11 11 9 11 10 10 21 21 17 8 7 8 5 6 7 7 10 13 8 9 9 10 4 11 12 12 15 22 17 10 9 13 4
9 9 8 8 9 9 10 11 10 9 9 7 8 10 13 12 21 23 19 8 9 9 9 6 8 10 14 14 8 8 10 8 2 2 2 5 12 17 24 17 15 15 8
8 8 9 10 9 10 11 10 10 10 9 10 11 9 11 13 15 24 24 9 8 8 7 7 6 13 15 16 15 7 9 3 5 1 2 2 4 8 9 8 12 12 11
7 7 9 9 8 7 8 7 7 8 8 10 10 9 8 10 17 20 25 21 15 6 8 7 8 17 18 16 11 10 10 3 1 2 2 2 4 5 5 6 8 7 4
7 8 8 7 7 6 8 9 8 9 8 8 8 8 8 9 10 23 23 23 15 8 6 11 15 14 14 9 11 8 2 1 2 1 1 2 2 5 9 8 11 15 14
5 6 5 9 7 7 5 6 7 8 8 8 9 9 8 9 10 11 11 10 14 11 13 9 10 10 9 8 5 6 3 3 2 2 2 4 4 4 6 7 8 9 11
4 5 6 5 6 5 5 6 6 7 8 6 6 7 9 10 12 19 15 11 11 12 10 7 6 5 5 5 4 4 3 3 2 3 4 4 4 6 6 6 7 4 7
3 4 5 4 4 4 4 3 10 9 14 16 16 12 6 15 21 21 19 21 24 20 7 7 9 9 7 5 4 4 4 4 3 2 3 4 5 5 6 6 7 8 10
3 3 4 5 3 5 6 5 5 6 7 11 15 17 17 17 20 22 18 15 22 15 8 8 8 9 9 7 4 4 3 2 3 3 4 5 5 6 7 7 7 8 8
1 2 4 3 2 2 2 4 3 4 6 6 9 16 18 17 19 22 21 11 11 12 7 7 8 9 8 7 7 6 4 4 4 4 5 6 5 7 7 7 7 8 9
2 0 2 3 3 4 3 2 2 3 2 2 4 7 11 14 14 16 17 7 5 6 7 8 7 7 8 8 6 6 7 6 5 5 5 5 5 5 7 7 8 11 11
3 4 3 2 2 4 2 2 3 3 3 3 3 3 5 6 7 8 6 5 5 5 5 6 6 7 7 7 6 5 6 7 7 6 6 7 6 7 8 9 8 9 8
3 2 2 3 3 1 1 2 2 2 2 3 2 4 11 3 4 4 5 6 6 6 5 5 7 6 6 7 6 6 6 6 7 7 6 6 7 7 7 8 8 9 8
2 1 2 2 2 1 1 1 2 2 1 2 3 4 9 3 4 4 4 4 4 4 4 4 4 5 6 6 6 6 7 6 7 6 7 7 7 7 7 7 7 7 8
3 2 1 1 0 1 1 1 1 2 2 1 1 2 3 2 3 4 4 4 4 5 5 3 4 5 6 6 7 6 6 6 5 5 7 6 6 6 5 6 6 6 6
3 3 4 3 2 1 1 2 2 2 2 1 0 1 1 2 3 4 4 4 4 4 4 4 3 6 5 5 5 6 6 5 5 6 6 6 7 7 6 6 6 7 6
4 4 4 3 3 4 2 2 3 2 3 3 3 2 1 1 1 2 4 4 3 4 5 6 4 4 6 7 6 7 7 8 7 7 6 8 9 8 6 6 5 5 5
4 4 4 3 3 3 4 4 4 3 4 3 3 3 3 2 2 2 3 3 3 3 5 4 5 5 6 4 4 5 7 9 7 8 5 5 6 5 5 6 7 4 5
Wind_Direction
243 212 210 211 214 215 219 216 216 218 213 215 213 219 224 220 221 216 225 233 230 227 225 223 227 226 225 228 229 232 233 233 246 251 208 193 193 197 197 203 186 184 200
4 93 80 11 232 211 216 223 220 224 217 214 214 220 222 223 232 226 227 227 230 230 227 224 224 223 224 224 225 228 231 231 234 245 213 202 205 208 202 187 184 185 176
46 51 55 49 34 39 48 51 19 318 227 217 219 222 224 226 232 230 234 234 233 235 234 230 228 219 226 222 223 227 227 229 229 234 242 193 205 183 181 182 177 158 175
45 51 47 36 33 35 34 47 54 26 26 22 37 26 20 276 273 284 258 240 241 240 239 236 232 225 226 227 228 229 231 231 228 235 236 187 181 167 179 171 175 182 166
36 46 38 32 27 23 42 32 40 45 33 32 4 46 41 46 36 5 351 355 356 308 278 254 241 235 228 229 229 231 230 230 230 231 236 165 176 158 188 181 185 167 170
35 41 25 30 25 9 33 29 38 35 30 42 6 49 22 42 14 5 5 341 350 350 342 329 330 338 327 299 277 272 256 231 232 232 235 226 206 195 178 180 170 164 179
35 33 28 26 21 10 25 10 34 31 29 39 36 21 30 32 7 7 1 332 344 327 332 312 326 309 308 308 300 289 269 258 248 255 251 224 193 188 173 174 184 193 182
28 30 33 14 26 6 21 23 22 21 23 21 20 18 15 11 10 4 358 351 333 327 318 321 302 297 304 297 285 285 276 265 253 250 236 230 204 182 182 184 175 138 88
23 19 20 5 20 16 32 24 23 28 26 23 22 19 11 12 10 3 1 348 341 333 317 313 316 313 308 305 287 282 280 271 282 272 263 244 193 177 172 143 148 156 127
9 12 18 19 33 24 29 31 27 28 25 12 14 19 17 12 8 4 359 344 337 341 330 315 298 312 314 311 298 285 285 297 269 284 224 184 171 176 176 175 165 177 148
355 8 24 23 28 31 32 30 29 24 16 18 15 8 13 12 0 359 354 342 332 326 323 325 317 316 320 321 310 279 269 291 263 261 63 112 142 170 178 183 178 177 166
349 15 21 15 19 13 24 16 17 19 21 21 13 8 4 1 3 353 350 348 340 324 324 318 312 322 323 317 313 300 270 209 59 59 91 104 128 121 118 107 107 97 61
4 9 16 10 18 12 29 33 32 27 22 15 14 3 354 352 357 355 349 356 346 342 323 322 327 331 333 332 330 325 119 102 103 107 119 74 89 112 109 90 85 87 73
359 13 17 41 34 21 22 35 36 28 19 19 13 4 349 352 356 353 347 349 346 349 342 327 330 342 357 4 356 29 36 36 36 78 78 88 100 104 108 116 108 105 96
9 18 30 22 24 16 17 27 47 42 32 21 12 360 358 356 352 351 358 360 353 351 359 353 353 351 354 359 5 20 27 39 63 93 111 103 96 100 87 96 111 78 100
64 63 65 63 48 26 28 352 22 44 43 35 36 28 14 12 7 6 11 17 12 9 13 6 359 357 360 355 357 356 17 31 30 63 96 108 108 97 95 86 81 95 105
71 81 75 65 53 46 44 38 13 338 14 29 26 28 25 23 19 19 22 29 28 27 29 9 359 352 348 351 354 360 357 18 62 66 82 92 98 97 102 92 94 104 102
69 29 74 59 37 36 20 32 9 13 4 348 351 17 13 15 21 25 23 31 23 22 13 1 353 347 346 351 357 1 5 16 46 69 87 102 107 114 109 105 103 108 107
109 343 97 80 66 75 67 73 76 36 358 298 315 355 1 4 20 27 29 45 31 16 4 356 348 348 345 346 356 11 21 26 37 57 63 72 93 105 100 97 99 104 105
134 110 93 100 38 65 37 36 36 25 12 353 350 323 337 354 15 5 7 7 7 3 351 359 349 348 343 352 353 11 32 30 31 42 57 67 68 81 92 101 102 104 95
156 125 98 96 76 75 53 68 84 68 24 345 321 319 30 50 347 350 344 356 3 345 346 350 352 355 1 345 6 12 40 51 43 39 42 54 72 80 76 82 90 95 107
186 143 112 165 130 97 115 114 91 105 47 11 319 336 18 30 9 344 337 346 342 318 316 315 357 11 354 2 2 21 23 39 59 58 60 58 61 68 79 87 95 97 103
132 140 114 5 291 147 72 50 138 166 191 193 304 355 359 1 351 337 330 328 347 345 326 335 9 23 4 9 14 16 43 33 16 62 80 73 69 72 80 90 95 95 99
155 164 168 183 183 182 174 210 234 217 199 210 262 0 344 329 346 324 316 318 358 348 321 342 359 40 20 14 16 26 30 23 34 42 57 88 91 82 78 75 72 89 97
164 159 168 183 188 189 195 220 223 221 225 226 218 201 228 287 324 311 305 326 338 351 348 336 336 17 32 41 40 47 52 52 52 59 69 74 77 78 87 92 96 89 86
169 173 180 174 189 184 185 198 206 208 220 218 229 227 205 213 242 275 285 315 337 346 328 324 335 21 37 12 15 44 71 69 64 63 66 86 98 91 92 98 101 102 113